Tacoma Narrows, WA
on Friday, November 16, 2012

Friday
Previous Day Next Day
Daily Summary
 ActualAverageRecord
Temperature
Mean Temperature °F °F  
Max Temperature 46°F 48°F 53°F (1998)
Min Temperature 37°F 40°F 28°F (2014)
Degree Days
Heating Degree Days 24    
Moisture
Dew Point 40°F   
Average Humidity 92    
Maximum Humidity 100    
Minimum Humidity 82    
Precipitation
Precipitation 0.25 in in in ()
Wind
Wind Speed 2 mph   
Max Wind Speed 5 mph   
Max Gust Speed mph   
Visibility 4 miles   
Events Fog , Rain   
Averages and records for this station are not official NWS values.
Key: T is trace of precipitation, MM is missing value
Source: NWS Daily Summary
Seasonal Weather Averages
Time(PST)TemperatureDew PointHumidity Pressure Visibility Wind DirectionWind SpeedGust SpeedPrecipitationEvents Conditions
12:53 AM 41.0°F 39.0°F 93% 29.95 in 3.0 miles Calm Calm - N/A   Overcast
1:15 AM 41.0°F 39.2°F 93% 29.94 in 1.8 miles Calm Calm - N/A   Overcast
1:25 AM 41.0°F 39.2°F 93% 29.94 in 2.0 miles South 4.6 mph - N/A   Overcast
1:33 AM 39.2°F 39.2°F 100% 29.94 in 1.0 miles Calm Calm - N/A   Mist
1:48 AM 39.2°F 39.2°F 100% 29.94 in 0.8 miles Calm Calm - N/A   Mist
1:53 AM 39.9°F 39.0°F 97% 29.95 in 0.5 miles Calm Calm - N/A Fog Fog
2:25 AM 41.0°F 39.2°F 93% 29.93 in 1.0 miles SSW 3.5 mph - N/A   Mist
2:33 AM 41.0°F 39.2°F 93% 29.93 in 0.8 miles South 3.5 mph - N/A   Mist
2:43 AM 41.0°F 39.2°F 93% 29.93 in 1.8 miles South 4.6 mph - N/A   Overcast
2:53 AM 39.9°F 39.0°F 97% 29.94 in 1.5 miles Calm Calm - N/A   Overcast
3:17 AM 39.2°F 37.4°F 93% 29.92 in 0.5 miles SSW 4.6 mph - N/A Fog Fog
3:43 AM 39.2°F 37.4°F 93% 29.91 in 0.2 miles SSW 3.5 mph - N/A Fog Fog
3:53 AM 39.9°F 37.9°F 93% 29.92 in 0.2 miles SSW 3.5 mph - N/A Fog Fog
4:53 AM 37.9°F 37.0°F 97% 29.92 in 0.2 miles South 3.5 mph - N/A Fog Fog
5:53 AM 37.9°F 37.0°F 97% 29.91 in 0.2 miles South 4.6 mph - N/A Fog Fog
6:26 AM 37.4°F 35.6°F 93% 29.91 in 0.5 miles SSE 3.5 mph - N/A Fog Fog
6:33 AM 37.4°F 35.6°F 93% 29.90 in 1.2 miles Calm Calm - N/A   Overcast
6:39 AM 37.4°F 35.6°F 93% 29.91 in 3.0 miles SE 4.6 mph - N/A   Overcast
6:53 AM 37.0°F 35.1°F 93% 29.92 in 10.0 miles SSE 3.5 mph - N/A   Overcast
7:53 AM 37.0°F 35.1°F 93% 29.91 in 10.0 miles Calm Calm - N/A   Mostly Cloudy
8:53 AM 39.0°F 36.0°F 89% 29.92 in 10.0 miles Calm Calm - N/A   Overcast
9:53 AM 41.0°F 37.0°F 86% 29.93 in 10.0 miles Variable 3.5 mph - N/A   Overcast
10:53 AM 42.1°F 37.0°F 82% 29.93 in 10.0 miles Calm Calm - N/A   Overcast
11:53 AM 43.0°F 37.9°F 82% 29.91 in 10.0 miles Calm Calm - 0.00 in   Overcast
12:53 PM 44.1°F 39.0°F 82% 29.88 in 8.0 miles East 3.5 mph - 0.01 in Rain Light Rain
1:53 PM 43.0°F 39.9°F 89% 29.85 in 8.0 miles NE 3.5 mph - 0.01 in Rain Light Rain
2:53 PM 43.0°F 41.0°F 93% 29.83 in 3.0 miles NNE 3.5 mph - 0.04 in Rain Light Rain
3:13 PM 44.6°F 42.8°F 93% 29.83 in 2.5 miles Calm Calm - 0.03 in Rain Light Rain
3:53 PM 44.1°F 41.0°F 89% 29.82 in 2.5 miles NE 3.5 mph - 0.06 in Rain Light Rain
4:00 PM 44.6°F 42.8°F 93% 29.81 in 2.5 miles Calm Calm - 0.01 in Rain Light Rain
4:53 PM 44.1°F 42.1°F 93% 29.81 in 2.5 miles West 4.6 mph - 0.05 in Rain Light Rain
5:53 PM 44.1°F 42.1°F 93% 29.79 in 2.0 miles Calm Calm - 0.03 in   Overcast
6:53 PM 45.0°F 42.1°F 90% 29.78 in 2.5 miles Calm Calm - N/A   Overcast
7:00 PM 44.6°F 42.8°F 93% 29.76 in 2.5 miles Calm Calm - N/A   Overcast
7:53 PM 45.0°F 43.0°F 93% 29.76 in 2.5 miles Calm Calm - N/A   Overcast
8:00 PM 44.6°F 42.8°F 93% 29.74 in 6.0 miles Calm Calm - N/A   Overcast
8:32 PM 44.6°F 42.8°F 93% 29.74 in 2.5 miles Calm Calm - 0.00 in Rain Light Rain
8:39 PM 44.6°F 42.8°F 93% 29.74 in 5.0 miles Calm Calm - 0.00 in Rain Light Rain
8:53 PM 45.0°F 43.0°F 93% 29.74 in 6.0 miles Calm Calm - 0.01 in Rain Light Rain
9:53 PM 45.0°F 43.0°F 93% 29.73 in 5.0 miles Calm Calm - 0.00 in   Overcast
10:48 PM 44.6°F 42.8°F 93% 29.73 in 3.0 miles SSW 3.5 mph - 0.01 in Rain Light Rain
10:53 PM 46.0°F 44.1°F 93% 29.74 in 3.0 miles Calm Calm - 0.02 in Rain Light Rain
11:53 PM 46.0°F 44.1°F 93% 29.70 in 5.0 miles Calm Calm - 0.02 in   Overcast
Moon Phase
Nov. 16 Nov. 20 Nov. 28 Dec. 06 Dec. 13
Sunrise:07:16 AM (PST) Moon Rise:10:19 AM (PST)11/16
Sunset:04:33 PM (PST) Moon Set:07:36 PM (PST)11/16

Copyright © 2014 The Weather Underground, Inc.